This demonstration page uses our WeatherBlox Daily Observations layout. Learn more.

41.55636, -103.73856

Hourly Observations for August 6, 2016

Temp ( °F °C ) Dew Point ( °F °C ) Humidity (%) Winds ( mph kmh ) Pressure ( in mb ) Visibility ( mi km ) Precip ( " mm )
12:53 am 00:53 Cloudy 63 17.2 53 11.7 70 70 ESE 14 22 30.05 1018 10 16.0934 0 0
1:53 am 01:53 Cloudy 62 16.7 54 12.2 75 75 ESE 12 19 30.04 1017 10 16.0934 0 0.0254
2:53 am 02:53 Cloudy with Light Rain 61 16.1 56 13.3 84 84 ESE 12 19 30.04 1017 10 16.0934 0 0.0254
3:53 am 03:53 Cloudy 60 15.6 57 13.9 90 90 ESE 12 19 30.03 1017 10 16.0934 0.02 0.508
4:53 am 04:53 Cloudy 61 16.1 55 12.8 81 81 SE 12 19 30.01 1016 10 16.0934 0 0
5:53 am 05:53 Cloudy 60 15.6 57 13.9 90 90 ESE 10 17 30.01 1016 10 16.0934 0 0
6:53 am 06:53 Cloudy 60 15.6 56 13.3 86 86 E 9 15 30.02 1017 10 16.0934 0 0
7:30 am 07:30 Cloudy 61 16 55 13 83 83 E 8 13 30 1016 10 16.0934 0 0
7:53 am 07:53 Cloudy 60 15.6 56 13.3 86 86 E 8 13 30.03 1017 10 16.0934 0 0
8:53 am 08:53 Cloudy 61 16.1 56 13.3 84 84 ESE 14 22 30.02 1017 10 16.0934 0 0
9:21 am 09:21 Cloudy 62 16.7 57 13.9 84 84 ESE 14 22 30 1016 10 16.0934 0 0
9:31 am 09:31 Cloudy 62 16.7 57 13.9 84 84 ESE 14 22 30 1016 10 16.0934 0 0
9:43 am 09:43 Cloudy 62 16.7 57 13.9 84 84 ESE 14 22 30 1016 10 16.0934 0 0
9:53 am 09:53 Cloudy 63 17.2 57 13.9 81 81 ESE 15 24 30.03 1017 10 16.0934 0 0
10:15 am 10:15 Cloudy 62 16.7 57 13.9 84 84 ESE 14 22 30 1016 10 16.0934 0 0
10:46 am 10:46 Cloudy 65 18.3 58 14.4 78 78 SE 15 24 29.97 1015 10 16.0934 0 0
10:53 am 10:53 Cloudy 65 18.3 58 14.4 78 78 ESE 17 28 30.02 1017 10 16.0934 0 0
11:53 am 11:53 Cloudy 67 19.4 59 15 76 76 SE 16 26 30.01 1016 10 16.0934 0 0
12:53 pm 12:53 Cloudy 68 20 60 15.6 76 76 SE 16 26 29.99 1016 10 16.0934 0 0
1:40 pm 13:40 Cloudy 70 21 61 16 73 73 SE 17 28 29.88 1012 10 16.0934 0 0
1:53 pm 13:53 Cloudy 69 20.6 60 15.6 73 73 SE 18 30 29.97 1015 10 16.0934 0 0
2:53 pm 14:53 Cloudy 70 21.1 60 15.6 71 71 SE 16 26 29.96 1015 10 16.0934 0 0
3:53 pm 15:53 Cloudy 69 20.6 60 15.6 73 73 SSE 16 26 29.96 1015 10 16.0934 0 0
4:53 pm 16:53 Cloudy 67 19.4 59 15 76 76 SSE 16 26 29.96 1014 10 16.0934 0 0
5:53 pm 17:53 Cloudy 68 20 60 15.6 76 76 SE 12 19 29.95 1014 10 16.0934 0 0
6:16 pm 18:16 Cloudy 68 20 60 15.6 76 76 SE 15 24 29.85 1011 10 16.0934 0 0
6:29 pm 18:29 Cloudy 68 20 60 15.6 76 76 SE 12 19 29.85 1011 10 16.0934 0 0
6:53 pm 18:53 Cloudy 69 20.6 61 16.1 76 76 ESE 16 26 29.93 1013 10 16.0934 0 0
7:53 pm 19:53 Cloudy 67 19.4 60 15.6 79 79 ESE 14 22 29.95 1014 10 16.0934 0 0
8:53 pm 20:53 Cloudy 66 18.9 62 16.7 87 87 ESE 15 24 29.96 1015 10 16.0934 0 0
9:53 pm 21:53 Cloudy 66 18.9 62 16.7 87 87 ESE 16 26 29.96 1015 10 16.0934 0 0
10:09 pm 22:09 Cloudy 65 18.3 62 16.7 90 90 ESE 15 24 29.91 1013 10 16.0934 0 0
10:31 pm 22:31 Cloudy 65 18.3 62 16.7 90 90 ESE 12 19 29.91 1013 10 16.0934 0 0
10:44 pm 22:44 Cloudy 64 18 63 17 94 94 ESE 12 19 29.91 1013 10 16.0934 0 0
10:53 pm 22:53 Cloudy 65 18.3 62 16.7 90 90 ESE 14 22 29.97 1015 10 16.0934 0 0
11:53 pm 23:53 Cloudy with Mist and Fog 64 17.8 62 16.7 93 93 ESE 14 22 29.96 1015 3 4.82802 0 0

Powered by AerisWeather